TimeEST,TemperatureF,Dew PointF,Humidity,Sea Level PressureIn,VisibilityMPH,Wind Direction,Wind SpeedMPH,Gust SpeedMPH,PrecipitationIn,Events,Conditions,WindDirDegrees,DateUTC
12:15 AM,33.8,33.8,100,30.25,10.0,Calm,Calm,-,N/A,,Clear,0,2013-02-01 05:15:00
12:35 AM,33.8,33.8,100,30.25,10.0,Calm,Calm,-,N/A,,Clear,0,2013-02-01 05:35:00
12:55 AM,33.8,32.0,93,30.25,10.0,Calm,Calm,-,N/A,,Clear,0,2013-02-01 05:55:00
1:15 AM,33.8,32.0,93,30.25,10.0,West,4.6,-,N/A,,Clear,260,2013-02-01 06:15:00
1:35 AM,35.6,28.4,75,30.25,10.0,West,6.9,-,N/A,,Clear,260,2013-02-01 06:35:00
1:55 AM,37.4,26.6,65,30.24,10.0,WSW,4.6,-,N/A,,Clear,250,2013-02-01 06:55:00
2:15 AM,37.4,26.6,65,30.23,10.0,WSW,5.8,-,N/A,,Clear,250,2013-02-01 07:15:00
2:35 AM,37.4,26.6,65,30.24,10.0,WSW,5.8,-,N/A,,Clear,250,2013-02-01 07:35:00
2:55 AM,37.4,26.6,65,30.24,10.0,WSW,5.8,-,N/A,,Clear,250,2013-02-01 07:55:00
3:15 AM,37.4,28.4,70,30.24,10.0,West,6.9,-,N/A,,Clear,260,2013-02-01 08:15:00
3:35 AM,39.2,28.4,65,30.23,10.0,WSW,6.9,-,N/A,,Clear,250,2013-02-01 08:35:00
3:55 AM,41.0,26.6,57,30.23,10.0,WSW,6.9,-,N/A,,Clear,250,2013-02-01 08:55:00
4:15 AM,41.0,26.6,57,30.22,10.0,WSW,6.9,-,N/A,,Clear,250,2013-02-01 09:15:00
4:35 AM,39.2,26.6,61,30.22,10.0,WSW,5.8,-,N/A,,Clear,240,2013-02-01 09:35:00
4:55 AM,39.2,26.6,61,30.22,10.0,WSW,6.9,-,N/A,,Clear,240,2013-02-01 09:55:00
5:15 AM,39.2,26.6,61,30.21,10.0,WSW,5.8,-,N/A,,Clear,250,2013-02-01 10:15:00
5:35 AM,39.2,28.4,65,30.21,10.0,WSW,6.9,-,N/A,,Clear,250,2013-02-01 10:35:00
5:55 AM,41.0,28.4,61,30.21,10.0,WSW,6.9,-,N/A,,Clear,250,2013-02-01 10:55:00
6:15 AM,39.2,28.4,65,30.21,10.0,WSW,5.8,-,N/A,,Clear,240,2013-02-01 11:15:00
6:35 AM,39.2,28.4,65,30.22,10.0,West,5.8,-,N/A,,Clear,260,2013-02-01 11:35:00
6:55 AM,41.0,28.4,61,30.22,10.0,West,6.9,-,N/A,,Clear,270,2013-02-01 11:55:00
7:15 AM,42.8,28.4,57,30.23,10.0,West,8.1,-,N/A,,Clear,270,2013-02-01 12:15:00
7:35 AM,42.8,28.4,57,30.23,10.0,West,9.2,-,N/A,,Clear,270,2013-02-01 12:35:00
7:55 AM,42.8,28.4,57,30.24,10.0,West,8.1,-,N/A,,Clear,270,2013-02-01 12:55:00
8:15 AM,44.6,28.4,53,30.26,10.0,West,8.1,-,N/A,,Clear,280,2013-02-01 13:15:00
8:35 AM,44.6,28.4,53,30.27,10.0,West,8.1,-,N/A,,Clear,280,2013-02-01 13:35:00
8:55 AM,46.4,28.4,50,30.28,10.0,WNW,8.1,-,N/A,,Clear,300,2013-02-01 13:55:00
9:15 AM,46.4,28.4,50,30.29,10.0,WNW,10.4,19.6,N/A,,Clear,300,2013-02-01 14:15:00
9:35 AM,48.2,28.4,46,30.29,10.0,WNW,15.0,23.0,N/A,,Clear,300,2013-02-01 14:35:00
9:55 AM,50.0,28.4,43,30.30,10.0,WNW,11.5,17.3,N/A,,Clear,300,2013-02-01 14:55:00
10:15 AM,50.0,28.4,43,30.30,10.0,WNW,13.8,-,N/A,,Clear,290,2013-02-01 15:15:00
10:35 AM,51.8,24.8,35,30.31,10.0,NW,15.0,20.7,N/A,,Clear,310,2013-02-01 15:35:00
10:55 AM,51.8,23.0,33,30.32,10.0,WNW,11.5,-,N/A,,Clear,300,2013-02-01 15:55:00
11:15 AM,51.8,21.2,30,30.33,10.0,NNW,15.0,21.9,N/A,,Clear,330,2013-02-01 16:15:00
11:35 AM,51.8,19.4,28,30.33,10.0,NNW,15.0,19.6,N/A,,Clear,330,2013-02-01 16:35:00
11:55 AM,51.8,17.6,26,30.33,10.0,NNW,12.7,17.3,N/A,,Clear,330,2013-02-01 16:55:00
12:15 PM,51.8,17.6,26,30.34,10.0,North,10.4,-,N/A,,Clear,350,2013-02-01 17:15:00
12:35 PM,51.8,14.0,22,30.33,10.0,NNW,11.5,17.3,N/A,,Clear,340,2013-02-01 17:35:00
12:55 PM,51.8,10.4,19,30.32,10.0,NW,12.7,21.9,N/A,,Clear,310,2013-02-01 17:55:00
1:15 PM,51.8,10.4,19,30.32,10.0,NW,8.1,-,N/A,,Clear,310,2013-02-01 18:15:00
1:35 PM,51.8,12.2,21,30.31,10.0,NW,4.6,16.1,N/A,,Clear,320,2013-02-01 18:35:00
1:55 PM,53.6,12.2,19,30.30,10.0,WNW,12.7,19.6,N/A,,Clear,300,2013-02-01 18:55:00
2:15 PM,53.6,14.0,21,30.31,10.0,NW,10.4,17.3,N/A,,Clear,310,2013-02-01 19:15:00
2:35 PM,53.6,14.0,21,30.31,10.0,NW,9.2,17.3,N/A,,Clear,320,2013-02-01 19:35:00
2:55 PM,53.6,12.2,19,30.31,10.0,WNW,9.2,-,N/A,,Clear,290,2013-02-01 19:55:00
3:15 PM,53.6,10.4,18,30.31,10.0,NW,6.9,17.3,N/A,,Clear,310,2013-02-01 20:15:00
3:35 PM,51.8,8.6,18,30.31,10.0,WNW,9.2,16.1,N/A,,Clear,290,2013-02-01 20:35:00
3:55 PM,51.8,5.0,15,30.31,10.0,WNW,9.2,-,N/A,,Clear,300,2013-02-01 20:55:00
4:15 PM,51.8,6.8,16,30.32,10.0,NW,10.4,18.4,N/A,,Clear,320,2013-02-01 21:15:00
4:35 PM,51.8,5.0,15,30.32,10.0,NW,6.9,-,N/A,,Clear,310,2013-02-01 21:35:00
4:55 PM,50.0,-0.4,13,30.33,10.0,NW,10.4,16.1,N/A,,Clear,320,2013-02-01 21:55:00
5:15 PM,50.0,-2.2,12,30.33,10.0,NNW,10.4,-,N/A,,Clear,330,2013-02-01 22:15:00
5:35 PM,46.4,1.4,16,30.34,10.0,NNW,5.8,-,N/A,,Clear,330,2013-02-01 22:35:00
5:55 PM,46.4,5.0,18,30.34,10.0,NNW,6.9,-,N/A,,Clear,330,2013-02-01 22:55:00
6:15 PM,42.8,6.8,23,30.35,10.0,NNW,4.6,-,N/A,,Clear,330,2013-02-01 23:15:00
6:35 PM,42.8,8.6,25,30.35,10.0,NW,3.5,-,N/A,,Clear,320,2013-02-01 23:35:00
6:55 PM,41.0,10.4,29,30.36,10.0,NNW,4.6,-,N/A,,Clear,340,2013-02-01 23:55:00
7:15 PM,41.0,10.4,29,30.37,10.0,NNW,4.6,-,N/A,,Clear,330,2013-02-02 00:15:00
7:35 PM,41.0,8.6,26,30.37,10.0,NNW,4.6,-,N/A,,Clear,340,2013-02-02 00:35:00
8:15 PM,37.4,8.6,30,30.38,10.0,North,3.5,-,N/A,,Clear,360,2013-02-02 01:15:00
8:35 PM,37.4,6.8,28,30.38,10.0,North,3.5,-,N/A,,Clear,350,2013-02-02 01:35:00
8:55 PM,37.4,5.0,26,30.38,10.0,North,3.5,-,N/A,,Clear,350,2013-02-02 01:55:00
9:15 PM,37.4,5.0,26,30.38,10.0,North,3.5,-,N/A,,Clear,350,2013-02-02 02:15:00
9:35 PM,35.6,6.8,30,30.38,10.0,North,3.5,-,N/A,,Clear,360,2013-02-02 02:35:00
9:55 PM,35.6,6.8,30,30.38,10.0,North,3.5,-,N/A,,Clear,350,2013-02-02 02:55:00
10:15 PM,33.8,6.8,32,30.39,10.0,North,3.5,-,N/A,,Clear,350,2013-02-02 03:15:00
10:35 PM,33.8,8.6,35,30.39,10.0,Calm,Calm,-,N/A,,Clear,0,2013-02-02 03:35:00
10:55 PM,33.8,8.6,35,30.39,10.0,Calm,Calm,-,N/A,,Clear,0,2013-02-02 03:55:00
11:15 PM,32.0,10.4,41,30.39,10.0,Calm,Calm,-,N/A,,Clear,0,2013-02-02 04:15:00
11:35 PM,32.0,15.8,51,30.39,10.0,Calm,Calm,-,N/A,,Clear,0,2013-02-02 04:35:00
11:55 PM,32.0,12.2,44,30.39,10.0,Calm,Calm,-,N/A,,Clear,0,2013-02-02 04:55:00